Overview Statistics Trail Chart Weather Telemetry Raw packets
 

This is the latest recevied weather packets stored in our database for station/object KO4YAW. If no packets are shown the sender has not sent any weather packets the latest 10 day(s).

<< 1 2 3 4 >>
Time Temp. Humidity Pressure Rain* Wind** Luminosity Snow
1788672965 23.89° C 39% 1019.7 hPa 0 mm - 0 W/m² -
1788672065 23.33° C 39% 1019.8 hPa 0 mm - 0 W/m² -
1788671165 23.33° C 39% 1019.9 hPa 0 mm - 0 W/m² -
1788670265 23.33° C 39% 1020.1 hPa 0 mm - 0 W/m² -
1788669365 23.89° C 36% 1020.1 hPa 0 mm - 0 W/m² -
1788668465 24.44° C 36% 1020.3 hPa 0 mm - 0 W/m² -
1788667565 24.44° C 34% 1019.9 hPa 0 mm - 0 W/m² -
1788666665 24.44° C 34% 1019.5 hPa 0 mm - 0 W/m² -
1788665765 25° C 34% 1019.3 hPa 0 mm - 0 W/m² -
1788664865 25.56° C 33% 1019.2 hPa 0 mm - 0 W/m² -
1788663965 25.56° C 32% 1019 hPa 0 mm - 0 W/m² -
1788663065 26.67° C 30% 1018.9 hPa 0 mm - 0 W/m² -
1788662165 27.22° C 29% 1018.8 hPa 0 mm - 0 W/m² -
1788661265 27.78° C 28% 1018.8 hPa 0 mm - 0 W/m² -
1788660365 28.33° C 26% 1018.5 hPa 0 mm - 0 W/m² -
1788659465 28.89° C 26% 1018.3 hPa 0 mm - 0 W/m² -
1788658592 29.44° C 24% 1017.8 hPa 0 mm - 1 W/m² -
1788657665 29.44° C 24% 1017.8 hPa 0 mm - 5 W/m² -
1788656765 30.56° C 23% 1017.7 hPa 0 mm - 12 W/m² -
1788655865 31.67° C 22% 1017.7 hPa 0 mm - 21 W/m² -
1788654965 33.89° C 20% 1017.7 hPa 0 mm - 37 W/m² -
1788654065 33.89° C 20% 1017.5 hPa 0 mm - 111 W/m² -
1788653165 34.44° C 19% 1017.5 hPa 0 mm - 158 W/m² -
1788652265 34.44° C 19% 1017.3 hPa 0 mm - 205 W/m² -
1788651365 35° C 19% 1017.3 hPa 0 mm - 259 W/m² -

* Rain since midnight (hover to see other rain measurements)
** Current wind speed in m/s (hover to see current wind gust speed)